CW6099 Weather Reports


Display with metric or nautical units.
time (UTC)temp
F
wind
direction
speed
MPH
gust
MPH
rain 1hr
in
rain 24hr
in
rain mn
in
humidity
%
barometer
mb
20260504220418 82 48 1.0 9.0 0.00 0.00 0.00 21 1002.0
20260504220331 82 64 0.0 9.0 0.00 0.00 0.00 19 1002.0
20260504215420 83 78 5.0 13.0 0.00 0.00 0.00 20 1002.2
20260504215314 83 56 6.0 13.0 0.00 0.00 0.00 20 1002.2
20260504214425 83 65 2.0 8.0 0.00 0.00 0.00 19 1002.3
20260504214315 83 142 3.0 8.0 0.00 0.00 0.00 19 1002.3
20260504213428 82 331 3.0 9.0 0.00 0.00 0.00 23 1002.4
20260504213321 82 309 3.0 9.0 0.00 0.00 0.00 21 1002.4
20260504212413 81 28 4.0 9.0 0.00 0.00 0.00 21 1002.5
20260504212310 81 29 4.0 9.0 0.00 0.00 0.00 20 1002.5
20260504211420 81 12 5.0 10.0 0.00 0.00 0.00 21 1002.6
20260504211313 81 340 6.0 10.0 0.00 0.00 0.00 21 1002.6
20260504210425 81 29 5.0 11.0 0.00 0.00 0.00 22 1002.7
20260504210318 81 15 3.0 11.0 0.00 0.00 0.00 22 1002.7
20260504205411 81 333 7.0 11.0 0.00 0.00 0.00 22 1002.7
20260504205323 81 338 7.0 11.0 0.00 0.00 0.00 23 1002.7
20260504204415 81 13 4.0 10.0 0.00 0.00 0.00 22 1002.8
20260504204332 81 38 5.0 10.0 0.00 0.00 0.00 23 1002.8
20260504203421 82 18 7.0 9.0 0.00 0.00 0.00 22 1002.8
20260504203316 82 38 7.0 9.0 0.00 0.00 0.00 21 1002.8
20260504202427 82 30 4.0 11.0 0.00 0.00 0.00 20 1003.0
20260504202315 82 13 4.0 11.0 0.00 0.00 0.00 20 1003.0
20260504201426 83 346 6.0 15.0 0.00 0.00 0.00 19 1003.1
20260504201339 83 350 9.0 15.0 0.00 0.00 0.00 19 1003.1
20260504200429 84 328 6.0 11.0 0.00 0.00 0.00 20 1003.3
20260504200321 84 349 7.0 11.0 0.00 0.00 0.00 21 1003.3
20260504195417 83 301 4.0 11.0 0.00 0.00 0.00 18 1003.3
20260504195330 83 297 4.0 11.0 0.00 0.00 0.00 18 1003.3
20260504194421 83 197 9.0 15.0 0.00 0.00 0.00 17 1003.2
20260504194314 84 216 7.0 12.0 0.00 0.00 0.00 17 1003.3
20260504193446 85 283 2.0 8.0 0.00 0.00 0.00 17 1003.3
20260504193317 85 282 3.0 8.0 0.00 0.00 0.00 19 1003.4
20260504192427 86 145 6.0 17.0 0.00 0.00 0.00 18 1003.5
20260504192320 87 216 6.0 17.0 0.00 0.00 0.00 19 1003.5
20260504191413 85 228 11.0 14.0 0.00 0.00 0.00 23 1003.7
20260504191330 85 250 11.0 14.0 0.00 0.00 0.00 21 1003.7
20260504190422 84 146 4.0 16.0 0.00 0.00 0.00 19 1003.6
20260504190315 84 143 5.0 16.0 0.00 0.00 0.00 19 1003.7
20260504185424 85 234 5.0 14.0 0.00 0.00 0.00 21 1003.8
20260504185318 85 284 3.0 8.0 0.00 0.00 0.00 19 1003.8
20260504184429 85 239 5.0 16.0 0.00 0.00 0.00 21 1004.0
20260504184323 85 236 9.0 16.0 0.00 0.00 0.00 21 1004.0
20260504183415 84 180 8.0 15.0 0.00 0.00 0.00 20 1004.2
20260504183313 84 211 10.0 15.0 0.00 0.00 0.00 21 1004.2
20260504182423 83 225 8.0 14.0 0.00 0.00 0.00 22 1004.3
20260504182316 82 248 5.0 11.0 0.00 0.00 0.00 25 1004.3
20260504181427 81 227 7.0 14.0 0.00 0.00 0.00 23 1004.5
20260504181320 81 259 6.0 20.0 0.00 0.00 0.00 25 1004.6
20260504180423 81 242 15.0 20.0 0.00 0.00 0.00 23 1004.7
20260504180316 81 226 11.0 18.0 0.00 0.00 0.00 23 1004.7
20260504175426 82 266 7.0 10.0 0.00 0.00 0.00 21 1004.8
20260504175321 83 289 6.0 10.0 0.00 0.00 0.00 22 1004.9
20260504174411 84 260 3.0 10.0 0.00 0.00 0.00 20 1005.0
20260504174323 84 286 2.0 10.0 0.00 0.00 0.00 20 1005.0
20260504173435 85 304 8.0 13.0 0.00 0.00 0.00 22 1005.1
20260504173348 85 263 8.0 13.0 0.00 0.00 0.00 21 1005.1
20260504172418 84 309 12.0 16.0 0.00 0.00 0.00 22 1005.2
20260504172312 84 302 9.0 13.0 0.00 0.00 0.00 22 1005.2
20260504171423 85 205 7.0 15.0 0.00 0.00 0.00 20 1005.4
20260504171316 85 265 10.0 15.0 0.00 0.00 0.00 22 1005.4
20260504170428 85 312 7.0 15.0 0.00 0.00 0.00 23 1005.3
20260504170324 85 338 9.0 15.0 0.00 0.00 0.00 23 1005.4
20260504160416 82 263 8.0 16.0 0.00 0.00 0.00 26 1005.5
20260504160307 82 284 8.0 18.0 0.00 0.00 0.00 26 1005.6
20260504150422 73 267 8.0 14.0 0.00 0.00 0.00 37 1005.9
20260504150334 73 236 8.0 14.0 0.00 0.00 0.00 37 1005.9
20260504141314 63 236 5.0 9.0 0.00 0.00 0.00 55 1006.1
20260504140424 62 258 6.0 8.0 0.00 0.00 0.00 56 1006.1
20260504140337 62 267 5.0 8.0 0.00 0.00 0.00 56 1006.1
20260504130410 49 263 5.0 10.0 0.00 0.00 0.00 72 1006.1
20260504130344 49 269 4.0 10.0 0.00 0.00 0.00 72 1006.1
20260504120313 41 285 9.0 11.0 0.00 0.00 0.00 79 1005.6
20260504110426 43 313 7.0 10.0 0.00 0.00 0.00 74 1005.7
20260504110318 43 316 6.0 9.0 0.00 0.00 0.00 74 1005.6
20260504100431 44 26 5.0 10.0 0.00 0.00 0.00 74 1006.1
20260504100322 44 42 7.0 10.0 0.00 0.00 0.00 74 1006.1
20260504081427 43 245 8.0 9.0 0.00 0.00 0.00 76 1006.8
20260504081317 43 243 8.0 9.0 0.00 0.00 0.00 75 1006.9
20260504080425 43 246 6.0 8.0 0.00 0.00 0.00 73 1006.9
20260504080315 44 243 5.0 8.0 0.00 0.00 0.00 73 1006.9
20260504070324 46 282 5.0 7.0 0.00 0.00 0.00 64 1007.7
20260504050441 57 77 9.0 11.0 0.00 0.00 0.00 50 1007.8
20260504050313 57 90 9.0 11.0 0.00 0.00 0.00 50 1007.8
20260504045425 57 87 9.0 11.0 0.00 0.00 0.00 49 1007.9
20260504045316 57 81 9.0 11.0 0.00 0.00 0.00 49 1007.8
20260504044408 57 61 9.0 12.0 0.00 0.00 0.00 49 1007.8
20260504044342 57 95 9.0 12.0 0.00 0.00 0.00 49 1007.7
20260504043411 57 86 10.0 12.0 0.00 0.00 0.00 49 1007.9
20260504043324 57 78 10.0 12.0 0.00 0.00 0.00 49 1007.9
20260504042415 56 97 8.0 11.0 0.00 0.00 0.00 47 1008.0
20260504042311 56 83 8.0 11.0 0.00 0.00 0.00 47 1008.0
20260504041422 57 125 7.0 11.0 0.00 0.00 0.00 46 1008.1
20260504041314 57 69 7.0 11.0 0.00 0.00 0.00 46 1008.1
20260504040426 58 98 8.0 10.0 0.00 0.00 0.00 43 1008.1
20260504040316 58 92 8.0 10.0 0.00 0.00 0.00 42 1008.1
20260504035449 60 88 9.0 12.0 0.00 0.00 0.00 39 1008.1
20260504035320 60 70 9.0 12.0 0.00 0.00 0.00 39 1008.1
20260504034411 61 76 10.0 12.0 0.00 0.00 0.00 37 1008.2
20260504034324 61 88 10.0 12.0 0.00 0.00 0.00 37 1008.1
20260504033419 62 84 10.0 12.0 0.00 0.00 0.00 34 1008.2
20260504033313 62 81 10.0 12.0 0.00 0.00 0.00 34 1008.1
20260504032424 63 86 9.0 12.0 0.00 0.00 0.00 32 1008.1
20260504032317 63 84 9.0 12.0 0.00 0.00 0.00 32 1008.1
20260504031427 64 76 8.0 12.0 0.00 0.00 0.00 29 1008.1
20260504031318 63 63 8.0 12.0 0.00 0.00 0.00 29 1008.0
20260504030409 64 67 5.0 8.0 0.00 0.00 0.00 30 1007.9
20260504030318 64 69 4.0 8.0 0.00 0.00 0.00 30 1008.0
20260504025429 64 76 5.0 9.0 0.00 0.00 0.00 29 1007.9
20260504025325 64 68 6.0 9.0 0.00 0.00 0.00 29 1007.9
20260504024414 65 75 5.0 10.0 0.00 0.00 0.00 30 1007.9
20260504024326 65 92 5.0 10.0 0.00 0.00 0.00 32 1007.9
20260504023417 65 59 10.0 10.0 0.00 0.00 0.00 29 1007.8
20260504023330 65 57 9.0 10.0 0.00 0.00 0.00 29 1007.8
20260504022416 66 61 9.0 10.0 0.00 0.00 0.00 30 1007.8
20260504022329 66 60 9.0 10.0 0.00 0.00 0.00 30 1007.8
20260504021420 67 66 7.0 10.0 0.00 0.00 0.00 30 1007.8
20260504021337 67 76 6.0 9.0 0.00 0.00 0.00 29 1007.8
20260504020427 68 62 5.0 9.0 0.00 0.00 0.00 28 1007.7
20260504020333 68 86 5.0 9.0 0.00 0.00 0.00 28 1007.7
20260504015423 69 60 7.0 9.0 0.00 0.00 0.00 27 1007.6
20260504015317 69 57 7.0 9.0 0.00 0.00 0.00 27 1007.5
20260504014425 69 60 8.0 9.0 0.00 0.00 0.00 28 1007.6
20260504014318 69 61 7.0 9.0 0.00 0.00 0.00 28 1007.5
20260504013450 70 67 3.0 4.0 0.00 0.00 0.00 28 1007.6
20260504013322 70 47 4.0 4.0 0.00 0.00 0.00 28 1007.6
20260504012413 71 51 3.0 6.0 0.00 0.00 0.00 27 1007.7
20260504012328 71 40 3.0 6.0 0.00 0.00 0.00 27 1007.7
20260504011419 73 66 4.0 6.0 0.00 0.00 0.00 27 1007.6
20260504011333 73 57 4.0 6.0 0.00 0.00 0.00 27 1007.7
20260504010425 74 38 3.0 6.0 0.00 0.00 0.00 27 1007.7
20260504010338 75 40 4.0 6.0 0.00 0.00 0.00 27 1007.8
20260504005428 76 49 4.0 7.0 0.00 0.00 0.00 23 1007.7
20260504005321 76 52 4.0 7.0 0.00 0.00 0.00 23 1007.7
20260504004413 78 34 3.0 5.0 0.00 0.00 0.00 24 1007.8
20260504004325 78 29 3.0 6.0 0.00 0.00 0.00 23 1007.8
20260504003417 79 65 4.0 7.0 0.00 0.00 0.00 22 1007.9
20260504003332 79 55 4.0 7.0 0.00 0.00 0.00 22 1007.9
20260504002422 79 39 3.0 8.0 0.00 0.00 0.00 20 1008.0
20260504002313 79 39 2.0 8.0 0.00 0.00 0.00 20 1007.9
20260504001425 80 15 4.0 11.0 0.00 0.00 0.00 21 1008.0
20260504001318 80 26 4.0 11.0 0.00 0.00 0.00 22 1008.0
20260504000431 80 56 6.0 11.0 0.00 0.00 0.00 21 1008.1
20260504000322 80 38 4.0 10.0 0.00 0.00 0.00 21 1008.1
20260503235433 80 24 8.0 13.0 0.00 0.00 0.00 20 1008.1
20260503235325 80 28 8.0 13.0 0.00 0.00 0.00 20 1008.1
20260503234420 81 49 8.0 13.0 0.00 0.00 0.00 21 1008.3
20260503234313 81 349 8.0 13.0 0.00 0.00 0.00 20 1008.3
20260503233424 81 26 9.0 15.0 0.00 0.00 0.00 20 1008.3
20260503233318 81 59 9.0 15.0 0.00 0.00 0.00 20 1008.3
20260503232410 81 40 6.0 15.0 0.00 0.00 0.00 20 1008.4
20260503232343 81 14 6.0 15.0 0.00 0.00 0.00 21 1008.4
20260503231413 81 22 8.0 14.0 0.00 0.00 0.00 21 1008.4
20260503231325 81 46 8.0 14.0 0.00 0.00 0.00 20 1008.4
20260503230416 82 360 7.0 15.0 0.00 0.00 0.00 21 1008.4
20260503230335 81 340 8.0 15.0 0.00 0.00 0.00 21 1008.4
20260503225446 81 344 9.0 13.0 0.00 0.00 0.00 21 1008.5
20260503225315 81 339 8.0 13.0 0.00 0.00 0.00 21 1008.6
20260503224427 80 319 4.0 11.0 0.00 0.00 0.00 22 1008.6
20260503224321 80 355 4.0 11.0 0.00 0.00 0.00 23 1008.6
20260503223411 81 315 4.0 14.0 0.00 0.00 0.00 21 1008.7
20260503223325 81 355 5.0 14.0 0.00 0.00 0.00 21 1008.7
20260503222436 80 35 8.0 16.0 0.00 0.00 0.00 21 1008.8
20260503222328 80 33 9.0 16.0 0.00 0.00 0.00 21 1008.8
20260503221418 81 355 6.0 16.0 0.00 0.00 0.00 21 1008.9
20260503221313 81 335 7.0 16.0 0.00 0.00 0.00 21 1009.0